Weather History for Menominee, MI

Change the Weather History Date:

Wednesday, November 13, 2013

  Actual Average Record
Temperature  
Mean Temperature 32 °F -  
Max Temperature 44 °F 41 °F 66 °F (1999)
Min Temperature 19 °F 26 °F 1 °F (1986)
Degree Days  
Heating Degree Days 34    
Moisture  
Dew Point 17 °F    
Average Humidity 57    
Maximum Humidity 86    
Minimum Humidity 39    
Precipitation  
Precipitation 0.00 in - - ()
Sea Level Pressure  
Sea Level Pressure 30.10 in    
Wind  
Wind Speed 10 mph (WSW)    
Max Wind Speed 21 mph    
Max Gust Speed 30 mph    
Visibility 10 miles    
Events      
Averages and records for this station are not official NWS values.
T = Trace of Precipitation, MM = Missing Value Source: NWS Daily Summary

Daily Weather History Graph

Daily Weather History Graph

Search for Another Location

Airport:

Trip Planner

Search our weather history database for the weather conditions in past years. The results will help you decide how hot, cold, wet, or windy it might be!

Date:

Astronomy

Nov. 13, 2013 Rise Set
Actual Time 6:46 AM CST 4:23 PM CST
Civil Twilight 6:14 AM CST 4:54 PM CST
Nautical Twilight 5:38 AM CST 5:30 PM CST
Astronomical Twilight 5:04 AM CST 6:04 PM CST
Moon 2:19 PM CST (11/13) 2:28 AM CST (11/13)
Length of Visible Light 10h 40m
Length of Day
9h 36m
Waxing Gibbous, 85% of the Moon is Illuminated
Nov 13
Waxing Gibbous
Nov 17
Full
Nov 25
Last Quarter
Dec 2
New
Dec 9
First Quarter

Hourly Weather History & Observations

Time (CST) Temp. Windchill Dew Point Humidity Pressure Visibility Wind Dir Wind Speed Gust Speed Precip Events Conditions
12:15 AM 21.2 °F 13.6 °F 10.4 °F 63% 30.43 in 10.0 mi WSW 5.8 mph - N/A   Clear
12:35 AM 21.2 °F 12.6 °F 10.4 °F 63% 30.42 in 10.0 mi WSW 6.9 mph - N/A   Clear
12:55 AM 21.2 °F 11.7 °F 12.2 °F 68% 30.42 in 10.0 mi WSW 8.1 mph - N/A   Clear
1:15 AM 21.2 °F 12.6 °F 12.2 °F 68% 30.41 in 10.0 mi WSW 6.9 mph - N/A   Clear
1:35 AM 21.2 °F 12.6 °F 12.2 °F 68% 30.41 in 10.0 mi WSW 6.9 mph - N/A   Clear
1:55 AM 21.2 °F 12.6 °F 12.2 °F 68% 30.40 in 10.0 mi West 6.9 mph - N/A   Clear
2:15 AM 21.2 °F 11.7 °F 12.2 °F 68% 30.39 in 10.0 mi WSW 8.1 mph - N/A   Clear
2:35 AM 21.2 °F 13.6 °F 12.2 °F 68% 30.38 in 10.0 mi WSW 5.8 mph - N/A   Clear
2:55 AM 21.2 °F 12.6 °F 12.2 °F 68% 30.37 in 10.0 mi WSW 6.9 mph - N/A   Clear
3:15 AM 21.2 °F 11.7 °F 12.2 °F 68% 30.36 in 10.0 mi WSW 8.1 mph - N/A   Clear
3:35 AM 21.2 °F 12.6 °F 12.2 °F 68% 30.36 in 10.0 mi WSW 6.9 mph - N/A   Clear
3:55 AM 19.4 °F 8.6 °F 12.2 °F 74% 30.35 in 10.0 mi WSW 9.2 mph - N/A   Clear
4:15 AM 19.4 °F 10.4 °F 12.2 °F 74% 30.34 in 10.0 mi WSW 6.9 mph - N/A   Clear
4:35 AM 19.4 °F 8.6 °F 12.2 °F 74% 30.33 in 10.0 mi WSW 9.2 mph - N/A   Clear
4:55 AM 19.4 °F 8.6 °F 14.0 °F 80% 30.31 in 10.0 mi WSW 9.2 mph - N/A   Clear
5:15 AM 19.4 °F 10.4 °F 14.0 °F 80% 30.31 in 10.0 mi West 6.9 mph - N/A   Clear
5:35 AM 19.4 °F 8.6 °F 15.8 °F 86% 30.31 in 10.0 mi WSW 9.2 mph - N/A   Clear
5:55 AM 19.4 °F 9.5 °F 14.0 °F 80% 30.30 in 10.0 mi WSW 8.1 mph - N/A   Clear
6:15 AM 21.2 °F 11.7 °F 14.0 °F 74% 30.29 in 10.0 mi WSW 8.1 mph - N/A   Clear
6:35 AM 19.4 °F 8.6 °F 12.2 °F 74% 30.28 in 10.0 mi WSW 9.2 mph - N/A   Clear
6:55 AM 19.4 °F 7.9 °F 12.2 °F 74% 30.26 in 10.0 mi WSW 10.4 mph 17.3 mph N/A   Clear
7:15 AM 19.4 °F 11.5 °F 12.2 °F 74% 30.25 in 10.0 mi WSW 5.8 mph - N/A   Clear
7:35 AM 19.4 °F 9.5 °F 12.2 °F 74% 30.25 in 10.0 mi WSW 8.1 mph - N/A   Clear
7:55 AM 21.2 °F 11.7 °F 12.2 °F 68% 30.25 in 10.0 mi WSW 8.1 mph - N/A   Clear
8:15 AM 21.2 °F 10.9 °F 14.0 °F 74% 30.24 in 10.0 mi WSW 9.2 mph - N/A   Clear
8:35 AM 21.2 °F 10.9 °F 15.8 °F 80% 30.22 in 10.0 mi WSW 9.2 mph - N/A   Clear
8:55 AM 24.8 °F 13.4 °F 14.0 °F 64% 30.21 in 10.0 mi WSW 12.7 mph 19.6 mph N/A   Clear
9:15 AM 26.6 °F 16.8 °F 15.8 °F 64% 30.20 in 10.0 mi WSW 10.4 mph 18.4 mph N/A   Clear
9:35 AM 28.4 °F 19.1 °F 15.8 °F 59% 30.19 in 10.0 mi WSW 10.4 mph - N/A   Clear
9:55 AM 30.2 °F 21.3 °F 15.8 °F 55% 30.19 in 10.0 mi West 10.4 mph 18.4 mph N/A   Clear
10:15 AM 30.2 °F 20.8 °F 15.8 °F 55% 30.16 in 10.0 mi WSW 11.5 mph 18.4 mph N/A   Clear
10:35 AM 32.0 °F 24.2 °F 14.0 °F 48% 30.15 in 10.0 mi West 9.2 mph 21.9 mph N/A   Clear
10:55 AM 33.8 °F 23.9 °F 14.0 °F 44% 30.12 in 10.0 mi WSW 15.0 mph 24.2 mph N/A   Clear
11:15 AM 33.8 °F 24.3 °F 14.0 °F 44% 30.11 in 10.0 mi WSW 13.8 mph 25.3 mph N/A   Clear
11:35 AM 35.6 °F 26.2 °F 15.8 °F 44% 30.09 in 10.0 mi WSW 15.0 mph 23.0 mph N/A   Clear
11:55 AM 35.6 °F 25.9 °F 15.8 °F 44% 30.07 in 10.0 mi WSW 16.1 mph 24.2 mph N/A   Clear
12:15 PM 37.4 °F 30.3 °F 17.6 °F 45% 30.05 in 10.0 mi WSW 10.4 mph 23.0 mph N/A   Clear
12:35 PM 37.4 °F 26.9 °F 17.6 °F 45% 30.03 in 10.0 mi SW 20.7 mph 26.5 mph N/A   Clear
12:55 PM 39.2 °F 30.5 °F 19.4 °F 45% 30.02 in 10.0 mi WSW 16.1 mph 29.9 mph N/A   Clear
1:15 PM 41.0 °F 32.5 °F 19.4 °F 42% 30.00 in 10.0 mi WSW 17.3 mph 27.6 mph N/A   Clear
1:35 PM 41.0 °F 34.7 °F 19.4 °F 42% 29.98 in 10.0 mi WSW 10.4 mph 25.3 mph N/A   Clear
1:55 PM 42.8 °F 36.2 °F 21.2 °F 42% 29.97 in 10.0 mi SW 12.7 mph 25.3 mph N/A   Clear
2:15 PM 42.8 °F 35.8 °F 21.2 °F 42% 29.95 in 10.0 mi SW 13.8 mph 25.3 mph N/A   Clear
2:35 PM 42.8 °F 35.4 °F 21.2 °F 42% 29.94 in 10.0 mi SW 15.0 mph 23.0 mph N/A   Clear
2:55 PM 44.6 °F 38.1 °F 21.2 °F 39% 29.92 in 10.0 mi SW 13.8 mph 23.0 mph N/A   Clear
3:15 PM 44.6 °F 36.6 °F 21.2 °F 39% 29.90 in 10.0 mi SW 19.6 mph 27.6 mph N/A   Clear
3:35 PM 44.6 °F 37.8 °F 21.2 °F 39% 29.89 in 10.0 mi WSW 15.0 mph 25.3 mph N/A   Clear
3:55 PM 44.6 °F 38.8 °F 21.2 °F 39% 29.90 in 10.0 mi WSW 11.5 mph 24.2 mph N/A   Clear
4:15 PM 42.8 °F 34.8 °F 21.2 °F 42% 29.89 in 10.0 mi WSW 17.3 mph 26.5 mph N/A   Clear
4:35 PM 42.8 °F 36.2 °F 21.2 °F 42% 29.89 in 10.0 mi WSW 12.7 mph 26.5 mph N/A   Clear
4:55 PM 41.0 °F 34.3 °F 21.2 °F 45% 29.89 in 10.0 mi SW 11.5 mph 20.7 mph N/A   Clear
5:15 PM 41.0 °F 33.5 °F 21.2 °F 45% 29.89 in 10.0 mi WSW 13.8 mph 20.7 mph N/A   Clear
5:35 PM 41.0 °F 32.5 °F 21.2 °F 45% 29.89 in 10.0 mi WSW 17.3 mph 24.2 mph N/A   Clear
5:55 PM 39.2 °F 30.8 °F 21.2 °F 49% 29.88 in 10.0 mi SW 15.0 mph 21.9 mph N/A   Clear
6:15 PM 39.2 °F 31.6 °F 23.0 °F 52% 29.88 in 10.0 mi WSW 12.7 mph 23.0 mph N/A   Clear
6:35 PM 39.2 °F 31.2 °F 24.8 °F 56% 29.89 in 10.0 mi WSW 13.8 mph 27.6 mph N/A   Clear
6:55 PM 39.2 °F 31.6 °F 23.0 °F 52% 29.90 in 10.0 mi WSW 12.7 mph 20.7 mph N/A   Clear
7:15 PM 39.2 °F 30.8 °F 23.0 °F 52% 29.90 in 10.0 mi WSW 15.0 mph 23.0 mph N/A   Clear
7:35 PM 39.2 °F 31.2 °F 24.8 °F 56% 29.88 in 10.0 mi WSW 13.8 mph 23.0 mph N/A   Clear
7:55 PM 39.2 °F 31.6 °F 24.8 °F 56% 29.88 in 10.0 mi WSW 12.7 mph 26.5 mph N/A   Clear
8:15 PM 39.2 °F 30.8 °F 24.8 °F 56% 29.88 in 10.0 mi WSW 15.0 mph 23.0 mph N/A   Clear
8:35 PM 39.2 °F 32.0 °F 23.0 °F 52% 29.89 in 10.0 mi West 11.5 mph 21.9 mph N/A   Clear
8:55 PM 39.2 °F 32.5 °F 23.0 °F 52% 29.89 in 10.0 mi WSW 10.4 mph 20.7 mph N/A   Clear
9:15 PM 39.2 °F 32.5 °F 23.0 °F 52% 29.90 in 10.0 mi West 10.4 mph 18.4 mph N/A   Clear
9:35 PM 39.2 °F 33.0 °F 23.0 °F 52% 29.90 in 10.0 mi WSW 9.2 mph 16.1 mph N/A   Clear
9:55 PM 39.2 °F 33.6 °F 21.2 °F 49% 29.90 in 10.0 mi WSW 8.1 mph 16.1 mph N/A   Clear
10:15 PM 39.2 °F 33.6 °F 21.2 °F 49% 29.90 in 10.0 mi WSW 8.1 mph - N/A   Clear
10:35 PM 37.4 °F 31.4 °F 21.2 °F 52% 29.90 in 10.0 mi West 8.1 mph - N/A   Clear
10:55 PM 37.4 °F 32.1 °F 19.4 °F 48% 29.89 in 10.0 mi WSW 6.9 mph - N/A   Clear
11:15 PM 37.4 °F 30.3 °F 19.4 °F 48% 29.89 in 10.0 mi WSW 10.4 mph - N/A   Clear
11:35 PM 37.4 °F 30.3 °F 19.4 °F 48% 29.88 in 10.0 mi WSW 10.4 mph - N/A   Clear
11:55 PM 37.4 °F 31.4 °F 17.6 °F 45% 29.88 in 10.0 mi WSW 8.1 mph - N/A   Clear